Home > Weather > Córdoba > Past weeks

Flag for Spain Past Weather in Córdoba, Spain — Yesterday and Last 2 Weeks

Now
79 °F

Sunny.


Feels Like: 81 °F
Forecast: 63 / 106 °F
Wind: No wind

Location: Cordoba / Aeropuerto

Current Time: Jul 28, 2016 at 10:42:49 AM

Latest Report: Jul 28, 2016 at 10:00 AM


Visibility: 10 mi

Pressure: 30.04 "Hg

Humidity: 61%

Dew Point: 64 °F

Location of CórdobaLocation

Past Weather in Córdoba — Graph

°F

Córdoba Temperature Yesterday

Maximum temperature yesterday: 99 °F (at 4:00 PM)
Minimum temperature yesterday: 70 °F (at 7:30 AM)
Average temperature yesterday: 86 °F

High & Low Weather Summary for the Past Weeks

 TemperatureHumidityPressure
High108 °F (Jul 19, 7:00 PM)83% (Jul 23, 6:00 AM)30.09 "Hg (Jul 23, 6:00 AM)
Low66 °F (Jul 22, 7:00 AM)11% (Jul 13, 8:00 PM)29.86 "Hg (Jul 19, 8:00 PM)
Average85 °F39%29.98 "Hg
* Reported Jul 13 9:00 AM — Jul 28 9:00 AM, Córdoba, Weather by CustomWeather, © 2016

Note: Actual official high and low records may vary slightly from our data, if they occured in-between our weather recording intervals... More about our weather records

Advertising

Córdoba Weather History for the Previous 24 Hours

Scroll right to see more
 ConditionsComfort  
Time TempWeatherWind HumidityBarometerVisibility
9:00 AM
Thu, Jul 28
73 °FSunny.No wind74%30.01 "Hg10 mi
8:30 AM72 °FSunny.1 mph73%30.01 "Hg10 mi
8:00 AM70 °FClear.1 mph78%30.01 "Hg10 mi
7:30 AM68 °FMild.2 mph78%30.01 "HgN/A
7:00 AM70 °FMild.2 mph73%30.01 "HgN/A
6:30 AM70 °FMild.3 mph73%30.01 "HgN/A
6:00 AM72 °FMild.6 mph69%30.01 "HgN/A
5:30 AM72 °FMild.5 mph65%29.98 "HgN/A
5:00 AM72 °FMild.3 mph69%29.98 "HgN/A
4:30 AM73 °FMild.2 mph61%30.01 "HgN/A
4:00 AM73 °FMild.5 mph61%30.01 "HgN/A
3:30 AM75 °FMild.3 mph57%30.01 "HgN/A
3:00 AM77 °FWarm.6 mph54%30.01 "HgN/A
2:30 AM75 °FMild.5 mph50%30.01 "HgN/A
2:00 AM77 °FWarm.5 mph47%30.01 "HgN/A
1:30 AM77 °FWarm.5 mph47%29.98 "HgN/A
1:00 AM79 °FWarm.5 mph45%29.98 "HgN/A
12:30 AM82 °FPleasantly warm.6 mph40%29.98 "HgN/A
12:00 AM82 °FPleasantly warm.6 mph37%29.98 "HgN/A
11:30 PM
Wed, Jul 27
84 °FPleasantly warm.8 mph35%29.98 "HgN/A
11:00 PM86 °FPleasantly warm.9 mph33%29.98 "HgN/A
10:30 PM86 °FPleasantly warm.7 mph35%29.95 "HgN/A
10:00 PM90 °FHot.9 mph31%29.95 "HgN/A
9:30 PM90 °FHot.10 mph33%29.92 "HgN/A
9:00 PM91 °FHot.12 mph32%29.92 "HgN/A
8:30 PM93 °FExtremely hot.10 mph30%29.92 "HgN/A
8:00 PM95 °FExtremely hot.13 mph30%29.92 "HgN/A
7:30 PM97 °FExtremely hot.13 mph28%29.92 "HgN/A
7:00 PM97 °FExtremely hot.13 mph27%29.92 "HgN/A
6:30 PM99 °FExtremely hot.12 mph25%29.92 "HgN/A
6:00 PM99 °FExtremely hot.13 mph25%29.92 "HgN/A
5:30 PM99 °FExtremely hot.13 mph27%29.92 "HgN/A
5:00 PM99 °FExtremely hot.9 mph27%29.95 "HgN/A
4:30 PM99 °FPassing clouds.9 mph27%29.95 "HgN/A
4:00 PM99 °FPassing clouds.10 mph25%29.95 "HgN/A
3:30 PM95 °FPassing clouds.10 mph30%29.98 "HgN/A
3:00 PM95 °FPassing clouds.9 mph30%29.98 "HgN/A
2:30 PM95 °FPassing clouds.9 mph28%29.98 "HgN/A
1:30 PM91 °FPassing clouds.8 mph34%30.01 "HgN/A
1:00 PM90 °FPassing clouds.8 mph33%30.01 "HgN/A
12:30 PM88 °FPassing clouds.9 mph35%30.04 "HgN/A
12:00 PM86 °FPassing clouds.6 mph38%30.04 "HgN/A
11:30 AM84 °FPassing clouds.3 mph40%30.04 "HgN/A
11:00 AM82 °FPassing clouds.3 mph42%30.04 "HgN/A
10:00 AM79 °FSunny.2 mph51%30.04 "Hg10 mi
Weather by CustomWeather, © 2016

See weather overviewHow to use our weather pages